KB6CYS Weather Reports


Display with metric or nautical units.
time (UTC)temp
F
wind
direction
speed
MPH
gust
MPH
rain 1hr
in
rain 24hr
in
rain mn
in
humidity
%
barometer
mb
20260505092502 56 171 2.0 3.0 0.00 0.00 0.00 1012.6
20260505092024 55 147 1.0 3.0 0.00 0.00 0.00 1012.6
20260505091503 55 94 2.0 3.0 0.00 0.00 0.00 1012.6
20260505091003 56 120 1.0 3.0 0.00 0.00 0.00 1012.2
20260505090502 55 101 1.0 4.0 0.00 0.00 0.00 1012.6
20260505090002 55 140 1.0 5.0 0.00 0.00 0.00 1012.6
20260505085523 55 241 2.0 5.0 0.00 0.00 0.00 1012.9
20260505085004 55 227 2.0 3.0 0.00 0.00 0.00 1012.9
20260505084502 55 209 2.0 3.0 0.00 0.00 0.00 1013.2
20260505084003 55 220 1.0 3.0 0.00 0.00 0.00 1013.2
20260505083502 55 247 1.0 5.0 0.00 0.00 0.00 1012.9
20260505083002 55 223 2.0 5.0 0.00 0.00 0.00 1012.6
20260505082503 55 221 3.0 3.0 0.00 0.00 0.00 1012.9
20260505082002 56 197 1.0 2.0 0.00 0.00 0.00 1012.9
20260505081502 55 201 1.0 2.0 0.00 0.00 0.00 1012.9
20260505081004 55 237 1.0 2.0 0.00 0.00 0.00 1012.9
20260505080502 55 202 1.0 2.0 0.00 0.00 0.00 1012.9
20260505080003 55 207 1.0 2.0 0.00 0.00 0.00 1012.9
20260505075502 55 224 1.0 2.0 0.00 0.00 0.00 1013.2
20260505075003 55 270 0.0 2.0 0.00 0.00 0.00 1013.2
20260505074502 55 228 1.0 2.0 0.00 0.00 0.00 1013.2
20260505074003 55 303 1.0 3.0 0.00 0.00 0.00 1013.6
20260505073503 55 299 1.0 3.0 0.00 0.00 0.00 1013.6
20260505073023 55 292 2.0 3.0 0.00 0.00 0.00 1013.9
20260505072502 55 308 1.0 3.0 0.00 0.00 0.00 1013.9
20260505072003 55 288 2.0 3.0 0.00 0.00 0.00 1013.6
20260505071502 56 285 1.0 2.0 0.00 0.00 0.00 1013.6
20260505071002 56 360 0.0 2.0 0.00 0.00 0.00 1013.6
20260505070502 56 309 0.0 2.0 0.00 0.00 0.00 1013.6
20260505070002 56 349 1.0 3.0 0.00 0.00 0.00 1013.9
20260505065503 55 321 1.0 3.0 0.00 0.00 0.00 1013.2
20260505065003 55 282 1.0 2.0 0.00 0.00 0.00 1013.6
20260505064502 56 0 0.0 2.0 0.00 0.00 0.00 1013.6
20260505064003 57 260 1.0 2.0 0.00 0.00 0.00 1013.6
20260505063504 57 266 2.0 2.0 0.00 0.00 0.00 1013.6
20260505063003 57 192 1.0 2.0 0.00 0.00 0.00 1013.9
20260505062523 58 207 1.0 3.0 0.00 0.00 0.00 1013.9
20260505062002 58 160 1.0 5.0 0.00 0.00 0.00 1013.9
20260505061503 58 159 3.0 5.0 0.00 0.00 0.00 1013.6
20260505061003 57 170 3.0 4.0 0.00 0.00 0.00 1013.9
20260505060503 58 111 2.0 4.0 0.00 0.00 0.00 1014.3
20260505060002 58 126 2.0 6.0 0.00 0.00 0.00 1013.9
20260505055503 58 169 3.0 6.0 0.00 0.00 0.00 1013.9
20260505055002 58 150 3.0 6.0 0.00 0.00 0.00 1014.3
20260505054502 58 159 2.0 7.0 0.00 0.00 0.00 1014.6
20260505054003 58 172 3.0 7.0 0.00 0.00 0.00 1014.3
20260505053525 58 189 3.0 5.0 0.00 0.00 0.00 1014.6
20260505053002 58 181 2.0 5.0 0.00 0.00 0.00 1014.3
20260505052503 58 158 3.0 6.0 0.00 0.00 0.00 1013.9
20260505052004 58 187 3.0 6.0 0.00 0.00 0.00 1014.3
20260505051503 58 186 2.0 4.0 0.00 0.00 0.00 1014.3
20260505051002 59 185 2.0 5.0 0.00 0.00 0.00 1013.9
20260505050502 58 207 2.0 6.0 0.00 0.00 0.00 1014.6
20260505041503 57 246 4.0 8.0 0.00 0.00 0.00 1014.6
20260505041002 57 233 4.0 9.0 0.00 0.00 0.00 1014.6
20260505040502 58 240 6.0 9.0 0.00 0.00 0.00 1014.3
20260505040002 58 224 3.0 7.0 0.00 0.00 0.00 1014.6
20260505035504 58 218 5.0 9.0 0.00 0.00 0.00 1014.6
20260505035004 58 230 6.0 9.0 0.00 0.00 0.00 1013.9
20260505034524 58 230 4.0 12.0 0.00 0.00 0.00 1013.9
20260505034003 58 223 5.0 12.0 0.00 0.00 0.00 1013.9
20260505033503 58 221 7.0 11.0 0.00 0.00 0.00 1014.3
20260505033003 58 228 5.0 10.0 0.00 0.00 0.00 1013.6
20260505032502 58 229 4.0 12.0 0.00 0.00 0.00 1013.6
20260505032003 58 221 6.0 14.0 0.00 0.00 0.00 1013.9
20260505031524 58 230 8.0 14.0 0.00 0.00 0.00 1013.6
20260505031003 58 235 7.0 11.0 0.00 0.00 0.00 1013.9
20260505030503 58 232 6.0 11.0 0.00 0.00 0.00 1013.9
20260505030002 58 242 5.0 13.0 0.00 0.00 0.00 1013.6
20260505025525 58 239 6.0 15.0 0.00 0.00 0.00 1013.6
20260505025003 59 248 5.0 15.0 0.00 0.00 0.00 1014.3
20260505024502 59 241 6.0 12.0 0.00 0.00 0.00 1014.3
20260505024003 59 220 8.0 16.0 0.00 0.00 0.00 1014.3
20260505023503 59 221 8.0 17.0 0.00 0.00 0.00 1014.3
20260505023025 58 229 11.0 17.0 0.00 0.00 0.00 1013.6
20260505022524 59 229 9.0 16.0 0.00 0.00 0.00 1014.3
20260505022004 59 225 8.0 16.0 0.00 0.00 0.00 1014.3
20260505021502 60 234 8.0 16.0 0.00 0.00 0.00 1014.3
20260505021004 60 227 6.0 18.0 0.00 0.00 0.00 1014.6
20260505020525 60 229 11.0 18.0 0.00 0.00 0.00 1014.3
20260505020003 60 231 10.0 19.0 0.00 0.00 0.00 1013.9
20260505015502 60 229 10.0 19.0 0.00 0.00 0.00 1013.9
20260505015003 60 225 10.0 17.0 0.00 0.00 0.00 1013.9
20260505014503 60 223 11.0 17.0 0.00 0.00 0.00 1013.2
20260505014002 61 217 9.0 17.0 0.00 0.00 0.00 1013.9
20260505013503 61 235 8.0 18.0 0.00 0.00 0.00 1013.6
20260505013003 62 230 10.0 18.0 0.00 0.00 0.00 1013.9
20260505012502 63 222 8.0 17.0 0.00 0.00 0.00 1013.6
20260505012003 64 227 9.0 17.0 0.00 0.00 0.00 1013.2
20260505011502 64 217 6.0 12.0 0.00 0.00 0.00 1013.2
20260505011002 65 219 7.0 12.0 0.00 0.00 0.00 1013.2
20260505010503 65 212 6.0 13.0 0.00 0.00 0.00 1012.9
20260505010024 65 217 8.0 13.0 0.00 0.00 0.00 1012.9
20260505005502 65 239 8.0 15.0 0.00 0.00 0.00 1013.2
20260505005005 65 228 8.0 16.0 0.00 0.00 0.00 1013.6
20260505004502 65 226 8.0 16.0 0.00 0.00 0.00 1013.9
20260505004025 65 229 6.0 16.0 0.00 0.00 0.00 1014.3
20260505003524 65 229 10.0 16.0 0.00 0.00 0.00 1013.6
20260505003003 65 228 9.0 16.0 0.00 0.00 0.00 1013.9
20260505002504 65 222 9.0 18.0 0.00 0.00 0.00 1013.6
20260505002024 65 222 8.0 18.0 0.00 0.00 0.00 1014.3
20260505001524 65 221 9.0 18.0 0.00 0.00 0.00 1014.3
20260505001002 66 233 11.0 18.0 0.00 0.00 0.00 1013.9
20260505000502 66 232 9.0 18.0 0.00 0.00 0.00 1013.9
20260505000003 66 215 8.0 18.0 0.00 0.00 0.00 1013.6
20260504235504 66 227 10.0 18.0 0.00 0.00 0.00 1013.6
20260504235004 67 225 9.0 15.0 0.00 0.00 0.00 1013.2
20260504234502 67 210 9.0 15.0 0.00 0.00 0.00 1012.9
20260504234003 66 229 8.0 15.0 0.00 0.00 0.00 1012.6
20260504233524 67 243 9.0 16.0 0.00 0.00 0.00 1012.6
20260504233003 66 242 10.0 16.0 0.00 0.00 0.00 1012.9
20260504232502 66 231 8.0 17.0 0.00 0.00 0.00 1012.9
20260504232024 66 216 7.0 17.0 0.00 0.00 0.00 1013.6
20260504231504 66 221 8.0 18.0 0.00 0.00 0.00 1012.9
20260504231003 66 224 10.0 22.0 0.00 0.00 0.00 1012.9
20260504230502 67 237 12.0 22.0 0.00 0.00 0.00 1012.9
20260504230003 67 215 8.0 16.0 0.00 0.00 0.00 1012.9
20260504225504 68 209 8.0 15.0 0.00 0.00 0.00 1012.9
20260504225003 68 219 7.0 17.0 0.00 0.00 0.00 1012.9
20260504224503 68 211 9.0 17.0 0.00 0.00 0.00 1013.6
20260504224002 68 219 8.0 17.0 0.00 0.00 0.00 1013.6
20260504223502 68 225 11.0 18.0 0.00 0.00 0.00 1013.2
20260504223024 68 209 9.0 19.0 0.00 0.00 0.00 1013.9
20260504222502 67 218 8.0 19.0 0.00 0.00 0.00 1014.3
20260504222003 67 223 12.0 19.0 0.00 0.00 0.00 1014.3
20260504221502 67 235 11.0 18.0 0.00 0.00 0.00 1013.2
20260504221003 68 212 10.0 19.0 0.00 0.00 0.00 1014.3
20260504220524 68 224 11.0 19.0 0.00 0.00 0.00 1013.2
20260504220002 67 219 8.0 24.0 0.00 0.00 0.00 1013.2
20260504215502 67 222 11.0 24.0 0.00 0.00 0.00 1013.2
20260504215003 68 222 12.0 23.0 0.00 0.00 0.00 1013.9
20260504214503 68 220 14.0 23.0 0.00 0.00 0.00 1013.9
20260504214002 68 231 11.0 21.0 0.00 0.00 0.00 1014.3
20260504213502 67 213 12.0 19.0 0.00 0.00 0.00 1014.3
20260504213002 66 212 9.0 19.0 0.00 0.00 0.00 1014.6
20260504212502 65 224 9.0 16.0 0.00 0.00 0.00 1013.9
20260504212002 65 220 7.0 18.0 0.00 0.00 0.00 1014.3
20260504211504 65 222 9.0 18.0 0.00 0.00 0.00 1014.3
20260504211002 66 217 8.0 17.0 0.00 0.00 0.00 1014.9
20260504210502 66 216 7.0 17.0 0.00 0.00 0.00 1014.3
20260504210003 67 221 8.0 14.0 0.00 0.00 0.00 1013.9
20260504205502 67 192 6.0 17.0 0.00 0.00 0.00 1014.6
20260504205003 67 215 10.0 18.0 0.00 0.00 0.00 1014.3
20260504204503 68 199 6.0 18.0 0.00 0.00 0.00 1014.3
20260504204003 68 221 10.0 17.0 0.00 0.00 0.00 1014.3
20260504203502 67 203 8.0 16.0 0.00 0.00 0.00 1014.6
20260504203003 66 210 8.0 20.0 0.00 0.00 0.00 1014.3
20260504202503 65 223 9.0 20.0 0.00 0.00 0.00 1014.3
20260504202003 66 226 10.0 17.0 0.00 0.00 0.00 1014.6
20260504201503 66 229 10.0 17.0 0.00 0.00 0.00 1014.6
20260504201004 67 233 10.0 15.0 0.00 0.00 0.00 1013.6
20260504200503 68 196 7.0 14.0 0.00 0.00 0.00 1014.3
20260504200003 68 217 9.0 14.0 0.00 0.00 0.00 1014.3
20260504195502 68 222 8.0 16.0 0.00 0.00 0.00 1014.3
20260504195004 68 207 8.0 16.0 0.00 0.00 0.00 1013.6
20260504194525 69 209 9.0 16.0 0.00 0.00 0.00 1013.9
20260504194004 68 185 8.0 16.0 0.00 0.00 0.00 1013.9
20260504193524 68 223 8.0 13.0 0.00 0.00 0.00 1014.3
20260504193002 68 217 7.0 15.0 0.00 0.00 0.00 1014.3
20260504192503 68 198 6.0 15.0 0.00 0.00 0.00 1014.6
20260504192003 68 212 7.0 15.0 0.00 0.00 0.00 1015.3
20260504191503 68 223 9.0 15.0 0.00 0.00 0.00 1014.3
20260504191024 68 225 6.0 13.0 0.00 0.00 0.00 1014.3
20260504190502 67 204 6.0 13.0 0.00 0.00 0.00 1014.6
20260504190003 67 198 6.0 11.0 0.00 0.00 0.00 1014.3
20260504185525 66 208 6.0 12.0 0.00 0.00 0.00 1014.3
20260504185003 66 229 7.0 12.0 0.00 0.00 0.00 1014.9
20260504184504 65 193 6.0 12.0 0.00 0.00 0.00 1014.3
20260504184003 65 217 5.0 13.0 0.00 0.00 0.00 1013.9
20260504183503 64 210 6.0 13.0 0.00 0.00 0.00 1013.9
20260504183003 65 206 6.0 14.0 0.00 0.00 0.00 1014.6
20260504182503 64 233 9.0 15.0 0.00 0.00 0.00 1013.9
20260504182003 64 227 8.0 15.0 0.00 0.00 0.00 1013.9
20260504181502 65 229 7.0 15.0 0.00 0.00 0.00 1013.9
20260504181024 66 223 6.0 12.0 0.00 0.00 0.00 1013.9
20260504180503 67 200 5.0 12.0 0.00 0.00 0.00 1013.6
20260504180003 68 216 6.0 12.0 0.00 0.00 0.00 1014.3
20260504175502 68 215 3.0 8.0 0.00 0.00 0.00 1014.3
20260504175004 68 226 5.0 8.0 0.00 0.00 0.00 1014.3
20260504174503 67 181 3.0 9.0 0.00 0.00 0.00 1013.9
20260504174004 66 229 4.0 9.0 0.00 0.00 0.00 1013.9
20260504173502 66 216 5.0 9.0 0.00 0.00 0.00 1014.3
20260504173002 66 178 4.0 10.0 0.00 0.00 0.00 1013.9
20260504172524 65 214 5.0 10.0 0.00 0.00 0.00 1013.9
20260504172003 64 212 6.0 11.0 0.00 0.00 0.00 1014.6
20260504171502 63 258 7.0 11.0 0.00 0.00 0.00 1014.9
20260504171024 63 259 4.0 9.0 0.00 0.00 0.00 1014.3
20260504170504 63 215 5.0 9.0 0.00 0.00 0.00 1014.6
20260504151024 59 280 5.0 10.0 0.00 0.00 0.00 1013.6
20260504150503 59 267 5.0 11.0 0.00 0.00 0.00 1013.6
20260504141002 58 233 4.0 7.0 0.00 0.00 0.00 1013.2
20260504140504 58 243 4.0 5.0 0.00 0.00 0.00 1013.6
20260504130503 57 252 1.0 2.0 0.00 0.00 0.00 1013.6
20260504110503 58 268 2.0 5.0 0.00 0.00 0.00 1013.2
20260504100503 57 287 2.0 5.0 0.00 0.00 0.00 1013.2